Wind_Speed
25 25 25 25 26 26 24 24 24 22 20 21 21 20 21 19 20 20 19 20 24 26 29 33 33 32 31 29 27 26 22 18 27 27 27 27 29 31 32 32 29 30 30 29 29 27 26 25 25
26 26 27 25 23 24 25 24 23 21 21 22 23 23 22 23 23 21 21 23 26 28 27 25 21 20 15 14 16 21 22 24 30 32 32 33 33 31 30 30 29 27 25 24 26 26 24 26 27
26 26 24 21 22 22 20 20 20 20 19 19 20 21 23 23 26 25 25 27 27 25 26 23 20 15 14 17 20 24 26 31 33 31 29 28 28 27 24 22 21 18 20 24 24 24 23 22 26
21 21 19 19 18 16 17 17 16 16 18 19 21 22 21 18 14 15 18 20 20 22 22 23 23 22 23 25 26 30 31 28 25 24 23 23 23 23 22 21 20 20 20 21 21 21 20 20 19
17 17 17 14 11 11 12 11 12 13 14 16 8 6 8 10 11 11 10 13 13 14 17 19 19 21 22 21 21 20 18 18 19 18 17 15 15 16 17 17 17 16 17 18 19 19 19 19 19
11 9 7 7 9 10 11 8 8 8 7 6 5 6 8 11 13 11 12 12 13 14 13 12 14 16 16 15 15 15 15 14 12 12 13 14 15 15 15 14 14 14 13 15 17 18 14 13 13
3 3 2 6 8 8 7 6 5 2 1 2 3 4 5 9 10 7 6 6 8 9 10 11 12 12 12 11 10 9 9 9 12 14 16 18 18 18 18 19 20 19 18 16 14 14 15 16 17
6 8 7 5 2 1 4 3 2 2 4 3 4 9 8 8 8 8 9 9 9 9 10 11 13 15 15 13 11 12 14 16 17 17 18 18 18 17 18 20 21 21 21 20 21 21 19 18 17
9 6 2 5 6 2 6 8 14 17 15 12 10 8 8 8 8 8 10 11 12 12 13 14 14 15 16 17 17 17 17 18 19 19 19 19 18 18 18 19 20 20 21 22 22 22 22 22 22
9 8 10 5 6 13 17 14 10 11 11 10 9 8 6 5 6 9 11 12 12 12 13 14 15 16 17 16 16 18 18 19 20 20 21 22 22 23 23 22 22 22 22 22 22 23 23 23 23
15 16 15 16 16 16 14 13 11 10 10 8 6 4 2 4 6 8 8 9 9 10 10 11 13 13 15 17 17 19 20 20 22 23 23 23 26 28 29 28 28 30 31 30 29 29 28 27 27
20 18 17 16 15 14 11 9 8 6 6 5 5 3 2 3 4 6 8 9 10 11 11 12 13 15 17 19 20 22 24 26 28 29 29 30 32 35 36 37 36 37 37 37 37 36 34 33 32
15 14 13 11 10 9 7 5 2 3 5 5 4 2 4 6 7 10 12 13 13 14 17 18 19 20 21 23 25 28 30 33 35 36 36 37 39 41 41 41 40 40 41 41 41 40 38 38 39
12 12 10 9 9 7 6 4 3 2 2 3 5 6 6 6 8 11 12 14 16 18 21 24 26 28 29 30 32 34 36 38 38 39 39 40 40 41 40 40 40 40 40 41 42 43 43 44 43
9 8 9 10 8 5 4 4 1 5 8 7 8 10 11 10 10 13 16 20 22 24 25 26 29 30 30 31 33 34 37 39 40 39 38 39 40 40 40 42 43 43 43 43 45 46 46 47 48
4 3 2 1 4 3 0 1 4 7 8 9 10 11 12 12 14 17 21 23 25 26 28 29 32 34 35 37 39 40 41 42 42 42 43 43 44 44 44 45 45 46 45 46 48 51 52 52 52
2 1 2 2 4 5 3 4 4 6 7 9 12 15 17 16 17 20 23 25 28 28 27 31 36 40 41 41 42 42 42 44 46 47 49 51 51 51 50 50 50 52 51 52 51 50 50 50 49
1 3 4 4 4 4 4 6 7 9 10 12 14 16 18 18 18 20 24 28 30 32 33 37 39 40 40 42 43 46 45 48 46 49 50 50 50 50 50 49 48 50 50 51 51 52 51 51 52
2 3 4 4 5 8 9 10 11 14 14 14 16 17 18 20 22 26 29 30 32 34 36 38 40 41 42 44 48 48 50 53 52 51 51 50 50 51 53 55 55 55 56 55 56 58 58 58 57
5 6 8 8 7 9 11 12 13 14 15 17 19 20 23 26 28 30 32 33 35 34 36 38 38 41 46 48 49 50 52 52 52 51 51 53 54 55 54 54 56 57 58 58 58 58 60 61 62
9 9 10 11 12 11 13 14 15 16 18 20 22 24 26 28 30 32 32 34 35 35 38 39 41 45 48 49 52 52 51 52 52 53 55 56 56 57 58 59 61 61 62 63 63 64 65 65 65
14 14 13 13 15 15 17 16 16 18 20 20 23 26 28 29 29 30 33 33 35 38 40 42 45 49 50 49 49 51 53 53 54 58 59 60 61 63 63 64 65 66 67 67 69 70 69 70 70
18 17 17 16 17 18 18 19 20 22 23 24 27 29 30 28 28 32 33 35 39 42 43 45 47 48 49 50 52 54 56 57 60 62 63 64 65 66 67 68 68 69 70 70 72 74 73 70 72
19 20 21 20 18 19 19 22 22 24 26 30 30 29 29 30 33 34 36 40 42 44 45 46 47 49 51 54 56 57 59 62 65 67 69 70 71 71 74 77 75 75 76 77 76 76 77 75 74
19 18 20 20 19 19 20 24 24 28 30 31 31 31 32 34 37 39 41 42 41 42 44 47 48 50 53 56 58 61 65 68 69 71 73 75 76 77 79 80 82 81 80 79 78 77 76 76 77
16 16 16 18 19 20 23 28 27 28 29 31 33 35 38 39 40 40 42 44 47 48 50 51 52 56 60 61 65 69 71 73 74 75 75 76 79 81 84 86 87 87 83 81 82 81 81 80 77
14 15 17 20 22 23 24 27 27 28 31 33 36 39 39 42 42 43 45 48 49 51 53 55 60 63 65 67 70 73 74 76 78 78 79 81 85 87 88 88 89 90 90 90 92 90 85 76 72
18 20 22 24 26 27 24 22 27 30 33 35 34 37 38 38 41 44 48 50 51 55 57 60 65 67 69 72 73 75 77 78 79 80 83 85 81 85 89 90 92 94 97 98 91 79 70 63 56
21 23 25 26 28 31 33 20 31 32 34 35 35 35 38 40 45 48 50 51 54 58 63 66 69 71 73 75 76 77 79 80 81 84 86 82 87 89 92 97 100 103 89 72 67 62 54 49 48
23 25 28 30 32 33 36 31 32 37 38 37 37 41 43 47 50 50 50 54 59 63 66 70 72 75 76 76 77 78 81 85 85 85 86 87 86 94 97 93 89 76 59 52 45 46 48 49 47
Wind_Direction
272 274 274 278 283 286 287 287 283 275 270 270 262 254 260 261 267 275 278 289 294 300 300 307 306 304 307 305 297 300 308 316 310 310 302 300 303 303 302 298 296 291 293 297 300 295 265 258 262
269 273 277 279 280 282 282 278 274 272 265 263 263 261 263 265 266 270 280 293 298 302 301 297 292 295 293 299 303 300 298 296 310 310 305 304 301 301 303 305 303 298 292 293 298 301 290 264 256
268 271 274 277 276 270 267 262 256 259 264 264 268 272 276 281 285 282 284 291 294 294 293 292 293 296 299 294 292 296 299 302 305 305 304 304 307 308 313 316 312 300 290 293 296 294 292 285 267
272 275 277 277 271 263 255 254 262 270 262 272 281 289 294 296 300 296 289 288 292 294 295 291 288 288 287 291 295 299 303 306 307 315 320 324 320 317 319 316 311 309 297 295 295 293 294 286 280
273 277 271 274 282 265 259 270 269 274 273 274 282 295 319 326 322 317 305 310 306 314 311 310 316 309 305 306 305 307 308 313 324 322 320 326 328 330 332 329 326 315 305 300 300 300 302 302 296
267 264 277 271 260 258 267 284 277 267 247 274 309 330 320 320 313 310 305 311 314 318 324 323 317 315 309 309 309 315 322 328 327 342 356 357 355 349 345 341 344 342 335 326 318 317 314 311 308
170 184 186 223 237 257 284 284 269 266 272 339 355 357 349 36 46 39 35 38 36 28 25 24 13 5 1 360 357 356 350 340 340 338 335 334 336 331 327 329 332 332 330 326 323 324 321 317 315
141 144 176 206 256 286 315 271 124 72 21 43 81 79 41 29 34 49 42 38 39 30 22 12 9 4 4 5 356 348 344 342 336 331 327 325 325 323 321 320 319 318 317 314 313 310 307 305 307
136 172 173 95 68 65 112 108 97 97 86 76 81 67 49 35 35 37 38 33 29 21 14 11 4 357 355 352 345 337 332 326 321 320 322 322 324 322 319 315 311 309 308 306 304 301 299 299 297
134 128 109 105 118 114 112 119 113 107 101 95 92 84 68 30 14 8 11 10 8 8 4 1 352 349 341 329 326 320 318 316 315 318 321 324 326 326 325 323 320 317 314 308 302 297 293 291 289
115 115 122 122 119 123 127 134 134 134 121 116 110 80 40 343 348 348 342 338 341 336 337 334 327 319 312 310 308 307 304 306 308 312 314 317 320 321 319 317 314 312 311 311 309 305 300 293 289
124 130 131 135 137 138 145 155 144 138 117 89 72 55 340 325 318 300 294 303 313 312 311 304 305 309 308 312 316 316 315 314 313 315 313 312 314 315 314 312 310 309 308 307 307 304 301 296 293
133 134 135 140 142 142 143 121 103 97 104 109 99 51 340 332 321 324 317 315 309 307 308 314 314 313 313 313 314 314 314 312 310 309 307 306 304 304 304 304 303 301 300 300 299 297 294 292 292
134 138 142 155 150 140 132 106 35 358 46 39 20 7 344 325 339 330 317 308 309 315 317 316 314 314 314 313 311 310 309 308 307 306 305 303 301 300 300 298 297 296 296 295 295 294 292 291 289
144 161 160 165 147 113 108 101 353 304 317 338 334 331 333 343 335 322 320 324 323 317 313 310 307 304 303 304 307 311 309 309 307 306 307 306 304 301 298 297 295 293 292 291 292 292 291 290 289
159 194 220 37 20 334 266 202 217 254 288 307 314 317 320 326 323 323 322 319 315 309 304 301 303 306 307 310 311 309 308 308 307 304 303 304 304 302 300 299 298 296 294 293 291 291 291 289 287
95 269 266 285 313 300 314 269 233 270 284 299 310 310 312 317 322 323 321 317 309 305 304 304 302 303 307 307 307 304 303 305 304 303 306 308 308 307 305 304 303 302 301 299 296 294 293 291 289
180 222 234 256 263 244 244 262 276 275 284 302 309 309 313 319 318 313 306 300 298 302 301 297 298 302 304 304 302 299 300 307 305 306 306 304 303 302 302 301 300 299 297 296 294 293 292 291 289
294 294 287 257 275 274 257 264 269 286 297 304 305 308 310 316 312 306 301 300 304 302 299 301 303 303 303 301 300 301 305 307 306 304 305 306 305 305 304 302 300 297 296 294 294 294 295 296 294
300 283 276 271 266 272 278 282 282 290 301 305 308 309 313 311 305 301 302 304 303 298 300 299 298 299 299 298 300 301 301 302 304 305 305 304 303 300 298 296 293 291 290 290 292 292 290 288 290
284 286 278 282 286 283 289 290 292 301 301 301 303 303 301 298 298 300 300 301 299 298 299 295 292 296 297 297 300 302 304 305 303 302 300 298 295 294 293 292 292 292 292 292 292 291 290 288 286
288 290 296 293 290 291 286 286 292 296 297 297 296 293 294 297 298 298 297 292 294 294 294 293 293 296 297 299 301 299 298 298 297 298 297 296 293 293 293 293 293 293 293 292 290 289 288 286 284
287 293 296 296 288 285 283 289 293 294 296 294 295 298 298 298 296 295 294 293 292 292 292 293 294 297 299 299 297 297 297 297 296 295 295 294 294 295 295 293 291 291 290 290 289 288 288 289 287
281 283 292 298 294 287 280 280 282 289 295 297 300 300 298 296 295 294 293 292 294 297 297 297 297 298 300 299 297 298 297 294 294 295 295 295 294 294 294 295 296 297 296 295 295 295 294 292 289
284 280 282 286 286 280 276 279 288 296 297 300 299 299 299 296 296 300 301 300 300 300 300 298 298 297 296 295 297 298 299 298 298 298 298 296 296 297 296 296 298 299 300 300 299 297 295 292 290
288 288 282 281 283 286 290 294 300 297 297 298 300 301 300 299 300 301 303 305 307 305 302 300 299 299 302 301 300 301 302 301 300 301 301 299 299 298 297 297 297 298 301 304 305 300 296 292 289
288 287 286 285 288 291 294 297 300 300 298 301 302 302 302 303 305 306 307 306 303 300 297 299 303 305 304 303 302 302 302 302 301 300 301 301 301 299 298 297 297 297 300 302 303 300 295 287 281
301 299 298 297 298 296 299 305 303 301 300 299 298 296 299 301 301 301 301 298 297 298 300 304 306 305 303 302 303 303 302 302 300 300 299 301 301 301 300 299 297 296 298 303 301 292 282 279 276
302 301 300 300 300 301 302 307 302 301 300 300 299 299 296 295 297 298 300 299 301 305 307 306 304 303 304 304 303 303 302 301 302 301 300 299 303 301 302 301 301 302 302 297 290 285 281 282 281
307 304 302 301 299 300 302 314 309 305 302 301 301 302 302 304 305 305 305 305 305 305 305 304 305 305 305 305 305 303 302 302 301 304 302 299 297 303 310 305 303 299 294 287 286 282 278 280 282
Height
5846 5846 5846 5846 5850 5846 5846 5847 5845 5845 5845 5845 5845 5846 5847 5847 5848 5850 5847 5846 5845 5846 5846 5846 5843 5841 5840 5840 5839 5837 5837 5835 5835 5834 5833 5833 5833 5830 5828 5828 5826 5824 5823 5821 5820 5820 5819 5819 5818
5842 5842 5842 5842 5843 5843 5842 5841 5841 5842 5842 5842 5842 5843 5844 5844 5844 5845 5845 5844 5844 5844 5843 5841 5840 5839 5836 5834 5834 5834 5833 5832 5832 5831 5830 5828 5828 5826 5824 5822 5821 5819 5818 5817 5816 5816 5814 5814 5813
5837 5837 5839 5838 5839 5838 5838 5838 5838 5839 5840 5841 5841 5841 5841 5842 5842 5842 5842 5842 5840 5839 5838 5837 5836 5835 5834 5833 5832 5831 5831 5830 5829 5827 5826 5826 5824 5822 5819 5817 5816 5814 5814 5814 5812 5811 5809 5809 5809
5829 5831 5834 5833 5833 5834 5835 5835 5837 5837 5837 5838 5839 5841 5841 5840 5839 5839 5838 5838 5837 5836 5834 5833 5833 5833 5833 5831 5829 5830 5828 5827 5826 5824 5824 5822 5819 5818 5816 5814 5813 5811 5810 5809 5808 5807 5806 5805 5804
5827 5827 5828 5829 5831 5833 5832 5834 5835 5836 5837 5838 5838 5839 5839 5838 5837 5836 5835 5835 5834 5833 5833 5832 5831 5831 5828 5827 5826 5826 5825 5824 5822 5822 5820 5817 5816 5815 5812 5811 5809 5807 5806 5805 5804 5803 5802 5800 5800
5823 5826 5827 5828 5828 5829 5830 5833 5834 5835 5836 5837 5836 5837 5837 5836 5834 5833 5833 5832 5832 5832 5831 5830 5828 5826 5825 5824 5824 5824 5822 5821 5821 5820 5817 5815 5814 5812 5810 5808 5807 5805 5804 5802 5801 5800 5799 5798 5797
5822 5824 5826 5825 5827 5829 5830 5831 5832 5833 5834 5833 5835 5836 5836 5835 5834 5833 5831 5832 5831 5829 5829 5827 5826 5824 5824 5822 5821 5820 5820 5820 5819 5817 5816 5814 5812 5811 5809 5806 5804 5803 5802 5801 5800 5798 5798 5797 5796
5822 5824 5824 5824 5826 5828 5829 5830 5830 5832 5832 5831 5833 5834 5835 5835 5834 5833 5833 5831 5830 5829 5827 5827 5825 5824 5823 5823 5822 5820 5819 5818 5816 5815 5814 5812 5811 5809 5806 5804 5802 5801 5800 5798 5797 5796 5794 5793 5792
5821 5822 5823 5825 5825 5828 5829 5830 5831 5833 5833 5831 5833 5833 5833 5833 5832 5831 5831 5830 5828 5827 5827 5826 5825 5823 5822 5820 5819 5817 5816 5814 5813 5812 5810 5809 5807 5805 5803 5801 5799 5797 5796 5794 5793 5792 5790 5789 5788
5821 5822 5823 5826 5827 5830 5830 5832 5831 5832 5832 5832 5833 5832 5833 5833 5832 5830 5829 5829 5827 5826 5826 5825 5824 5821 5819 5819 5817 5815 5813 5812 5810 5808 5806 5804 5802 5801 5799 5797 5795 5794 5792 5790 5788 5787 5785 5784 5782
5822 5824 5825 5828 5829 5831 5831 5832 5831 5832 5832 5833 5833 5832 5832 5832 5830 5830 5829 5828 5826 5825 5823 5823 5822 5820 5818 5816 5814 5813 5810 5808 5806 5803 5802 5800 5798 5795 5793 5791 5789 5787 5785 5783 5781 5780 5779 5778 5777
5823 5825 5827 5829 5830 5830 5832 5834 5832 5833 5832 5833 5832 5831 5830 5828 5830 5828 5827 5826 5825 5824 5821 5819 5818 5816 5815 5813 5811 5809 5807 5805 5802 5800 5797 5795 5792 5790 5788 5785 5782 5780 5778 5776 5774 5772 5770 5769 5768
5826 5827 5829 5832 5832 5832 5833 5834 5834 5833 5831 5832 5830 5830 5828 5828 5828 5826 5825 5824 5823 5821 5820 5818 5815 5814 5812 5810 5808 5805 5802 5800 5797 5795 5791 5789 5785 5782 5780 5777 5775 5772 5770 5767 5765 5763 5761 5760 5758
5826 5828 5831 5832 5834 5833 5832 5831 5830 5831 5829 5829 5828 5828 5828 5827 5825 5825 5824 5822 5821 5819 5816 5813 5811 5809 5808 5805 5802 5800 5798 5795 5792 5789 5785 5782 5779 5775 5772 5770 5767 5764 5762 5759 5756 5754 5752 5749 5748
5827 5830 5830 5832 5832 5831 5829 5830 5829 5828 5828 5828 5826 5826 5824 5823 5822 5822 5821 5819 5817 5814 5812 5809 5807 5806 5803 5801 5798 5794 5791 5788 5784 5780 5776 5773 5769 5766 5763 5760 5757 5754 5751 5748 5745 5743 5741 5739 5737
5829 5828 5830 5829 5829 5829 5829 5828 5829 5828 5828 5827 5826 5824 5823 5821 5821 5820 5818 5816 5814 5810 5807 5805 5802 5799 5795 5793 5789 5786 5782 5779 5775 5771 5767 5763 5759 5755 5752 5748 5745 5742 5739 5736 5733 5730 5728 5726 5723
5828 5828 5829 5829 5829 5828 5827 5826 5827 5827 5826 5825 5824 5823 5822 5822 5821 5819 5817 5813 5809 5805 5802 5799 5795 5791 5788 5785 5782 5778 5775 5771 5766 5761 5756 5751 5746 5742 5739 5735 5732 5727 5724 5720 5717 5714 5712 5710 5709
5828 5828 5829 5828 5829 5827 5826 5825 5825 5824 5824 5823 5822 5822 5821 5820 5818 5816 5813 5808 5804 5801 5797 5793 5789 5786 5782 5779 5775 5771 5767 5763 5758 5753 5748 5743 5737 5733 5728 5724 5720 5716 5712 5708 5704 5701 5698 5695 5693
5826 5826 5826 5827 5826 5825 5824 5823 5822 5821 5821 5821 5820 5818 5817 5815 5813 5810 5806 5802 5799 5795 5791 5787 5782 5779 5775 5771 5766 5762 5757 5752 5747 5742 5737 5731 5727 5722 5718 5714 5710 5705 5700 5696 5691 5686 5683 5681 5677
5825 5825 5825 5825 5824 5823 5821 5820 5820 5819 5818 5816 5815 5813 5812 5810 5807 5804 5800 5796 5792 5788 5784 5780 5775 5771 5766 5761 5756 5752 5748 5743 5737 5731 5726 5720 5715 5710 5705 5701 5696 5691 5686 5681 5677 5673 5669 5665 5662
5822 5822 5822 5821 5820 5819 5818 5817 5816 5816 5814 5812 5810 5809 5807 5805 5802 5799 5795 5791 5785 5781 5777 5772 5767 5763 5757 5752 5747 5741 5735 5729 5724 5719 5713 5708 5702 5696 5690 5683 5677 5673 5669 5665 5660 5656 5652 5649 5646
5819 5818 5818 5817 5816 5814 5814 5814 5813 5812 5811 5809 5807 5805 5802 5800 5796 5792 5788 5783 5779 5773 5769 5764 5758 5753 5748 5742 5736 5730 5724 5719 5713 5707 5701 5695 5689 5682 5675 5668 5662 5657 5652 5648 5644 5639 5635 5630 5627
5815 5814 5813 5812 5812 5811 5810 5810 5809 5807 5806 5804 5801 5798 5795 5792 5788 5784 5780 5775 5770 5764 5760 5754 5748 5742 5735 5729 5724 5718 5712 5705 5699 5693 5687 5679 5671 5663 5658 5653 5648 5642 5636 5631 5626 5620 5615 5610 5606
5811 5810 5808 5808 5807 5807 5806 5805 5805 5802 5799 5796 5793 5790 5787 5783 5779 5774 5770 5764 5759 5754 5749 5743 5737 5730 5724 5718 5711 5705 5698 5691 5685 5677 5669 5661 5654 5648 5640 5633 5628 5622 5616 5611 5605 5599 5592 5587 5580
5805 5805 5805 5805 5803 5803 5801 5799 5799 5795 5791 5788 5784 5781 5777 5773 5768 5763 5758 5754 5749 5744 5738 5732 5725 5719 5713 5706 5698 5689 5681 5675 5666 5657 5649 5642 5635 5627 5621 5613 5606 5599 5593 5587 5580 5574 5568 5562 5556
5800 5800 5800 5799 5798 5797 5795 5791 5791 5787 5783 5779 5776 5772 5767 5762 5758 5753 5748 5742 5737 5731 5725 5720 5714 5707 5700 5692 5683 5673 5663 5656 5648 5639 5630 5621 5613 5607 5599 5592 5583 5575 5567 5561 5555 5548 5543 5537 5531
5797 5796 5795 5794 5792 5791 5790 5785 5783 5779 5775 5772 5768 5762 5756 5752 5747 5742 5737 5732 5726 5719 5713 5707 5699 5691 5683 5675 5666 5656 5647 5638 5629 5621 5611 5603 5594 5585 5576 5568 5558 5550 5542 5535 5529 5522 5515 5509 5504
5793 5792 5790 5787 5785 5782 5783 5782 5775 5771 5767 5764 5760 5755 5751 5746 5740 5734 5729 5722 5715 5708 5702 5695 5687 5677 5668 5658 5649 5641 5632 5622 5613 5605 5595 5585 5574 5563 5552 5544 5534 5524 5517 5508 5499 5492 5484 5479 5477
5789 5786 5783 5781 5778 5774 5771 5779 5769 5764 5760 5756 5752 5748 5743 5737 5731 5725 5719 5712 5705 5696 5688 5679 5670 5662 5653 5643 5634 5625 5616 5606 5595 5584 5573 5562 5551 5540 5530 5520 5509 5497 5487 5479 5472 5467 5465 5463 5461
5782 5779 5776 5773 5772 5769 5764 5767 5761 5753 5749 5746 5743 5737 5732 5726 5719 5714 5707 5699 5691 5683 5674 5665 5655 5646 5637 5629 5620 5609 5597 5586 5574 5563 5552 5541 5529 5517 5505 5493 5482 5472 5465 5460 5455 5453 5451 5448 5446